Biloxi, MS

4:51 PM CST on February 23, 2018 (GMT -0600)
Keesler Air Force Base

Weather History for KBIX - June, 2013

Change the Weather History Date:

Thursday, June 6, 2013

  Actual Average Record
Temperature  
Mean Temperature 78 °F -  
Max Temperature 90 °F 86 °F 95 °F (1960)
Min Temperature 67 °F 71 °F 63 °F (1956)
Cooling Degree Days 13    
Growing Degree Days 28 (Base 50)    
Moisture  
Dew Point 68 °F    
Average Humidity 74    
Maximum Humidity 93    
Minimum Humidity 47    
Precipitation  
Precipitation 0.00 in - - ()
Sea Level Pressure  
Sea Level Pressure 29.80 in    
Wind  
Wind Speed 6 mph (North)    
Max Wind Speed 13 mph    
Max Gust Speed 20 mph    
Visibility 10 miles    
Events Rain , Thunderstorm    
Averages and records for this station are not official NWS values.
T = Trace of Precipitation, MM = Missing Value Source: NWS Daily Summary

Daily Weather History Graph

Daily Weather History Graph

Search for Another Location

Airport or City:

Trip Planner

Search our weather history database for the weather conditions in past years. The results will help you decide how hot, cold, wet, or windy it might be!

Date:

Astronomy

Jun. 06, 2013 Rise Set
Actual Time 5:53 AM CDT 7:55 PM CDT
Civil Twilight 5:25 AM CDT 8:23 PM CDT
Nautical Twilight 4:52 AM CDT 8:56 PM CDT
Astronomical Twilight 4:17 AM CDT 9:32 PM CDT
Moon 4:27 AM CDT (6/6) 6:22 PM CDT (6/6)
Length of Visible Light 14h 57m
Length of Day
14h 02m
Waning Crescent, 3% of the Moon is Illuminated
Jun 6
Waning Crescent
Jun 8
New
Jun 16
First Quarter
Jun 23
Full
Jun 29
Last Quarter

Hourly Weather History & Observations

Time (CDT) Temp. Heat Index Dew Point Humidity Pressure Visibility Wind Dir Wind Speed Gust Speed Precip Events Conditions
12:58 AM 75.7 °F - 68.2 °F 77% 29.86 in 10.0 mi ESE 8.1 mph - N/A   Clear
1:58 AM 72.0 °F - 66.9 °F 84% 29.85 in 10.0 mi East 4.6 mph - N/A   Clear
2:58 AM 70.7 °F - 66.0 °F 85% 29.82 in 10.0 mi NNE 5.8 mph - N/A   Clear
3:58 AM 68.9 °F - 66.0 °F 90% 29.81 in 10.0 mi Variable 3.5 mph - N/A   Clear
4:58 AM 68.0 °F - 65.8 °F 93% 29.82 in 10.0 mi NNE 5.8 mph - N/A   Clear
5:58 AM 67.8 °F - 65.8 °F 93% 29.81 in 10.0 mi NNE 5.8 mph - N/A   Clear
6:58 AM 69.6 °F - 66.0 °F 88% 29.82 in 10.0 mi North 3.5 mph - N/A   Clear
7:58 AM 74.1 °F - 66.0 °F 76% 29.83 in 10.0 mi NNE 6.9 mph - N/A   Clear
8:58 AM 75.7 °F - 66.2 °F 72% 29.86 in 10.0 mi North 6.9 mph - N/A   Scattered Clouds
9:58 AM 80.8 °F 82.9 °F 66.0 °F 61% 29.84 in 10.0 mi North 5.8 mph - N/A   Mostly Cloudy
10:58 AM 84.7 °F 87.6 °F 67.3 °F 56% 29.84 in 10.0 mi NNE 8.1 mph - N/A   Clear
11:58 AM 86.4 °F 88.4 °F 65.5 °F 50% 29.84 in 10.0 mi NNE 4.6 mph - N/A   Clear
12:58 PM 89.1 °F 91.7 °F 66.2 °F 47% 29.83 in 10.0 mi NW 9.2 mph - N/A   Scattered Clouds
1:58 PM 89.1 °F 92.9 °F 68.4 °F 50% 29.79 in 10.0 mi NNW 9.2 mph - N/A   Clear
2:58 PM 88.7 °F 93.9 °F 70.3 °F 54% 29.76 in 10.0 mi SSW 10.4 mph - N/A   Mostly Cloudy
3:58 PM 88.5 °F 94.9 °F 71.4 °F 57% 29.76 in 10.0 mi WSW 10.4 mph - N/A   Scattered Clouds
4:13 PM 86.0 °F 91.8 °F 71.6 °F 62% 29.75 in 10.0 mi WSW 12.7 mph - N/A Thunderstorm Thunderstorm
4:45 PM 84.2 °F 88.4 °F 69.8 °F 62% 29.76 in 10.0 mi Variable 5.8 mph - N/A Thunderstorm Overcast
4:58 PM 82.2 °F 86.0 °F 69.8 °F 66% 29.78 in 10.0 mi NNW 9.2 mph 19.6 mph N/A Thunderstorm Mostly Cloudy
5:58 PM 77.7 °F - 67.6 °F 71% 29.78 in 10.0 mi Variable 5.8 mph - N/A   Clear
6:16 PM 77.0 °F - 68.0 °F 74% 29.76 in 10.0 mi Variable 3.5 mph - N/A Rain Light Rain
6:28 PM 77.0 °F - 68.0 °F 74% 29.76 in 10.0 mi Variable 1.2 mph - N/A   Clear
6:45 PM 77.0 °F - 69.8 °F 78% 29.76 in 10.0 mi Variable 1.2 mph - N/A Rain Light Rain
6:58 PM 76.1 °F - 69.8 °F 81% 29.77 in 10.0 mi Variable 2.3 mph - 0.00 in   Light Drizzle
7:00 PM 75.2 °F - 69.8 °F 83% 29.77 in 10.0 mi Variable 2.3 mph - N/A   Scattered Clouds
7:58 PM 75.2 °F - 69.4 °F 82% 29.81 in 10.0 mi NNW 8.1 mph - 0.00 in   Partly Cloudy
8:58 PM 73.9 °F - 69.1 °F 85% 29.80 in 10.0 mi NNE 3.5 mph - N/A   Partly Cloudy
9:58 PM 73.6 °F - 68.5 °F 84% 29.80 in 10.0 mi NE 4.6 mph - N/A   Overcast
10:58 PM 73.6 °F - 69.1 °F 86% 29.81 in 10.0 mi NNW 5.8 mph - N/A   Partly Cloudy
11:58 PM 72.7 °F - 68.7 °F 87% 29.82 in 10.0 mi NW 5.8 mph - N/A   Overcast